STARLINK-2100 (47380 NORAD) Tracking and Keplerian Element Data

This shows tracking and keplerian element data for the satellite.

Feedback or suggestion? Click here.




ElementValue
Catalog47380
NameSTARLINK-2100
Epoch Orbit1464
Epoch Day105.91667824
Epoch Year2021
RAAN152.3915
Inclination53.0531
Eccentricity0.0004263
Argument of Perigee7.3719
Mean Anonmoly343.367
Mean Motion15.62780299
Decay Rate-0.00055775
L11 47380U 21005AH 21105.91667824 -.00055775 00000-0 -60650-3 0 9993
L22 47380 53.0531 152.3915 0004263 7.3719 343.3670 15.62780299 14649

Live tracking and technical data element details for STARLINK-2100 (NORAD 47380). STARLINK-2100 can be tracked NOW for your location showing map with azimuth and elevation plus other details from your city location.

Track the satellite on the map from your city or location and see movement details for azimuth, elevation, latitude, longitude, range, height, and movement on the map or in text.







IsCatalogInMostPopularTable: catalog: 47380, numindb: 16
Update: records affected: 1



GetName: 47380 STARLINK-2100

Hit Count: updated at: Fri, 16 Apr 2021 10:03:47 GMT